HB9EYW-6 Weather Reports


Display with metric or nautical units.
time (UTC)temp
F
wind
direction
speed
MPH
gust
MPH
rain 1hr
in
rain 24hr
in
rain mn
in
humidity
%
barometer
mb
20260506073505 58 131 0.0 2.0 0.00 0.00 0.00 70
20260506073005 58 130 0.0 2.0 0.00 0.00 0.00 71
20260506072505 58 133 0.0 2.0 0.00 0.01 0.00 72
20260506072005 58 131 1.0 2.0 0.00 0.01 0.00 73
20260506071505 57 108 0.0 2.0 0.00 0.01 0.00 74
20260506071005 56 97 0.0 2.0 0.00 0.01 0.00 74
20260506070505 55 111 0.0 2.0 0.00 0.01 0.00 75
20260506062505 54 135 1.0 4.0 0.00 0.01 0.00 80
20260506062005 54 131 1.0 3.0 0.00 0.01 0.00 81
20260506061505 54 138 0.0 4.0 0.00 0.01 0.00 81
20260506061005 54 142 1.0 4.0 0.00 0.01 0.00 82
20260506060505 53 134 0.0 2.0 0.00 0.01 0.00 82
20260506051005 52 0 0.0 0.0 0.00 0.01 0.00 82
20260506050505 52 90 0.0 1.0 0.00 0.01 0.00 82
20260506045005 52 152 1.0 2.0 0.00 0.01 0.00 82
20260506044505 52 225 0.0 1.0 0.00 0.01 0.00 82
20260506044005 52 225 0.0 1.0 0.00 0.01 0.00 82
20260506043505 52 225 0.0 1.0 0.00 0.01 0.00 82
20260506043005 52 135 0.0 2.0 0.00 0.01 0.00 82
20260506042505 52 135 0.0 2.0 0.00 0.01 0.00 82
20260506042005 52 136 0.0 2.0 0.00 0.01 0.00 82
20260506041505 52 140 0.0 2.0 0.00 0.01 0.00 82
20260506041005 52 137 0.0 2.0 0.00 0.01 0.00 82
20260506040505 52 135 1.0 2.0 0.00 0.01 0.00 82
20260506040005 52 135 1.0 2.0 0.00 0.01 0.00 82
20260506035505 52 135 0.0 2.0 0.00 0.01 0.00 82
20260506035005 52 135 0.0 2.0 0.00 0.01 0.00 82
20260506034505 52 0 0.0 0.0 0.00 0.01 0.00 82
20260506034005 52 125 0.0 3.0 0.00 0.01 0.00 81
20260506033505 52 131 0.0 3.0 0.00 0.01 0.00 81
20260506033005 52 135 2.0 2.0 0.00 0.01 0.00 81
20260506032505 52 135 0.0 1.0 0.00 0.01 0.00 81
20260506032005 52 315 0.0 1.0 0.00 0.01 0.00 81
20260506031505 52 135 0.0 2.0 0.00 0.01 0.00 81
20260506031005 52 135 0.0 2.0 0.00 0.01 0.00 81
20260506030505 52 133 1.0 3.0 0.00 0.01 0.00 81
20260506030005 52 123 1.0 3.0 0.00 0.01 0.00 81
20260506025505 52 126 2.0 3.0 0.00 0.01 0.00 80
20260506025005 52 130 0.0 3.0 0.00 0.01 0.00 80
20260506024505 52 136 1.0 2.0 0.00 0.01 0.00 79
20260506024005 52 161 0.0 2.0 0.00 0.01 0.00 79
20260506023504 53 125 0.0 2.0 0.00 0.01 0.00 79
20260506023004 53 104 1.0 4.0 0.00 0.01 0.00 78
20260506022505 53 116 0.0 4.0 0.00 0.01 0.00 78
20260506022004 53 118 2.0 4.0 0.00 0.01 0.00 78
20260506021504 53 132 0.0 2.0 0.00 0.01 0.00 77
20260506021004 53 0 0.0 0.0 0.00 0.01 0.00 77
20260506020504 53 109 0.0 2.0 0.00 0.01 0.00 77
20260506020005 53 130 0.0 2.0 0.00 0.01 0.00 77
20260506015505 53 193 0.0 1.0 0.00 0.01 0.00 76
20260506015004 54 203 0.0 2.0 0.00 0.01 0.00 76
20260506014504 54 166 0.0 2.0 0.00 0.01 0.00 76
20260506014005 54 135 0.0 2.0 0.00 0.01 0.00 76
20260506013504 54 135 0.0 1.0 0.00 0.01 0.00 75
20260506013005 54 135 0.0 1.0 0.00 0.01 0.00 75
20260506012504 54 146 0.0 2.0 0.00 0.01 0.00 75
20260506012004 54 148 0.0 2.0 0.00 0.01 0.00 75
20260506011504 54 106 0.0 2.0 0.00 0.01 0.00 75
20260506011004 54 97 0.0 2.0 0.00 0.01 0.00 75
20260506010504 55 107 1.0 4.0 0.00 0.01 0.00 75
20260506010004 55 121 1.0 4.0 0.00 0.01 0.00 75
20260506005504 55 136 0.0 2.0 0.00 0.01 0.00 76
20260506005004 55 141 0.0 2.0 0.00 0.01 0.00 76
20260506004505 55 140 0.0 2.0 0.00 0.01 0.00 76
20260506004004 55 140 0.0 2.0 0.00 0.01 0.00 76
20260506003504 55 143 0.0 2.0 0.00 0.01 0.00 76
20260506003004 55 135 0.0 2.0 0.00 0.01 0.00 76
20260506002504 55 135 0.0 2.0 0.00 0.01 0.00 75
20260506002004 55 138 0.0 2.0 0.00 0.01 0.00 75
20260506001504 55 142 0.0 2.0 0.00 0.01 0.00 75
20260506001004 55 145 0.0 2.0 0.00 0.01 0.00 75
20260506000504 55 135 0.0 1.0 0.00 0.01 0.00 75
20260506000005 55 132 0.0 3.0 0.00 0.01 0.00 75
20260505235504 55 133 0.0 3.0 0.00 0.01 0.00 75
20260505235004 55 149 0.0 3.0 0.00 0.01 0.00 75
20260505234504 55 159 0.0 3.0 0.00 0.01 0.00 75
20260505234004 55 146 0.0 2.0 0.00 0.01 0.00 75
20260505233504 55 126 0.0 4.0 0.00 0.01 0.00 75
20260505233004 55 129 1.0 4.0 0.00 0.01 0.00 75
20260505232504 55 153 0.0 2.0 0.00 0.01 0.00 75
20260505232004 55 157 0.0 2.0 0.00 0.01 0.00 75
20260505231504 56 175 0.0 2.0 0.00 0.01 0.00 75
20260505231004 56 183 0.0 2.0 0.00 0.01 0.00 75
20260505230504 56 180 0.0 1.0 0.00 0.01 0.00 74
20260505230004 56 163 0.0 2.0 0.00 0.01 0.00 74
20260505225504 56 139 0.0 3.0 0.00 0.01 0.00 74
20260505225004 56 139 0.0 4.0 0.00 0.01 0.00 75
20260505224504 56 138 1.0 4.0 0.00 0.01 0.00 75
20260505224004 56 133 2.0 4.0 0.00 0.01 0.00 75
20260505223504 56 158 0.0 1.0 0.00 0.01 0.00 75
20260505223004 56 164 0.0 2.0 0.00 0.01 0.00 75
20260505222504 56 152 0.0 2.0 0.00 0.01 0.00 75
20260505222004 56 149 0.0 3.0 0.00 0.01 0.00 75
20260505221504 56 137 0.0 3.0 0.00 0.01 0.00 76
20260505221004 56 132 0.0 2.0 0.00 0.01 0.00 76
20260505220504 56 142 1.0 2.0 0.00 0.01 0.00 76
20260505220005 56 148 1.0 2.0 0.00 0.01 0.00 76
20260505215504 56 143 0.0 2.0 0.00 0.01 0.01 76
20260505215004 56 127 0.0 3.0 0.00 0.01 0.01 77
20260505214504 56 117 1.0 4.0 0.00 0.01 0.01 76
20260505214004 56 126 1.0 4.0 0.00 0.01 0.01 76
20260505213504 56 135 1.0 3.0 0.00 0.01 0.01 76
20260505213004 56 139 0.0 4.0 0.00 0.01 0.01 75
20260505212504 56 117 1.0 4.0 0.00 0.01 0.01 75
20260505212004 56 109 2.0 4.0 0.00 0.01 0.01 75
20260505211504 56 131 0.0 3.0 0.00 0.01 0.01 74
20260505211004 56 135 0.0 2.0 0.00 0.01 0.01 73
20260505210504 56 139 0.0 1.0 0.00 0.01 0.01 72
20260505210004 56 144 0.0 2.0 0.00 0.01 0.01 72
20260505205504 56 145 0.0 2.0 0.00 0.01 0.01 72
20260505205004 56 0 0.0 0.0 0.00 0.01 0.01 71
20260505204504 56 0 0.0 0.0 0.00 0.01 0.01 70
20260505204004 56 0 0.0 0.0 0.00 0.01 0.01 70
20260505203504 56 180 0.0 1.0 0.00 0.01 0.01 70
20260505203004 56 220 0.0 1.0 0.00 0.01 0.01 69
20260505202504 56 279 0.0 1.0 0.00 0.01 0.01 68
20260505202004 57 271 0.0 2.0 0.00 0.01 0.01 68
20260505201504 57 133 0.0 2.0 0.00 0.01 0.01 68
20260505201004 57 135 0.0 2.0 0.00 0.01 0.01 68
20260505200504 57 0 0.0 0.0 0.00 0.01 0.01 66
20260505200004 57 135 0.0 1.0 0.00 0.01 0.01 66
20260505195504 58 135 0.0 1.0 0.00 0.01 0.01 66
20260505195004 58 135 0.0 2.0 0.00 0.01 0.01 65
20260505194504 58 135 0.0 2.0 0.00 0.01 0.01 64
20260505194004 58 135 0.0 2.0 0.00 0.01 0.01 63
20260505193504 58 135 0.0 1.0 0.00 0.01 0.01 61
20260505193004 58 170 0.0 1.0 0.00 0.01 0.01 60
20260505192504 58 177 0.0 2.0 0.00 0.01 0.01 60
20260505192004 59 175 0.0 2.0 0.00 0.01 0.01 59
20260505191504 59 187 0.0 2.0 0.00 0.01 0.01 59
20260505191004 59 214 0.0 1.0 0.00 0.01 0.01 59
20260505190504 60 227 0.0 1.0 0.00 0.01 0.01 59
20260505190004 60 215 0.0 2.0 0.00 0.01 0.01 59
20260505185504 60 145 0.0 2.0 0.00 0.01 0.01 59
20260505185004 60 125 0.0 2.0 0.00 0.01 0.01 58
20260505184504 60 148 0.0 2.0 0.00 0.01 0.01 57
20260505184004 61 145 0.0 2.0 0.00 0.01 0.01 55
20260505183504 62 133 0.0 2.0 0.00 0.01 0.01 53
20260505183005 62 120 0.0 2.0 0.00 0.01 0.01 50
20260505182504 63 131 0.0 2.0 0.00 0.01 0.01 49
20260505182004 65 147 0.0 2.0 0.00 0.01 0.01 48
20260505181504 65 115 0.0 2.0 0.00 0.01 0.01 49
20260505181004 65 0 0.0 0.0 0.00 0.01 0.01 52
20260505180504 63 148 0.0 1.0 0.00 0.01 0.01 54
20260505180004 63 219 0.0 2.0 0.00 0.01 0.01 54
20260505175504 62 238 0.0 2.0 0.00 0.01 0.01 54
20260505175004 62 255 0.0 3.0 0.00 0.01 0.01 54
20260505174504 62 277 0.0 4.0 0.00 0.01 0.01 53
20260505174004 62 261 2.0 4.0 0.00 0.01 0.01 52
20260505173504 63 208 1.0 4.0 0.00 0.01 0.01 55
20260505173004 64 242 1.0 3.0 0.00 0.01 0.01 57
20260505172504 64 260 0.0 2.0 0.00 0.01 0.01 57
20260505172004 64 169 0.0 1.0 0.00 0.01 0.01 57
20260505171504 64 0 0.0 0.0 0.00 0.02 0.01 57
20260505171004 64 0 0.0 0.0 0.00 0.02 0.01 56
20260505170504 65 153 0.0 1.0 0.00 0.02 0.01 55
20260505170004 65 137 0.0 2.0 0.00 0.02 0.01 55
20260505165504 65 136 0.0 2.0 0.00 0.02 0.01 54
20260505165004 66 135 0.0 1.0 0.00 0.02 0.01 54
20260505164504 66 90 0.0 1.0 0.00 0.02 0.01 53
20260505164004 66 224 0.0 2.0 0.00 0.04 0.01 52
20260505163504 66 214 0.0 2.0 0.00 0.04 0.01 51
20260505163004 67 171 0.0 1.0 0.00 0.04 0.01 50
20260505162504 67 195 0.0 2.0 0.00 0.05 0.01 50
20260505162004 68 195 0.0 2.0 0.00 0.06 0.01 49
20260505161504 68 180 0.0 2.0 0.00 0.06 0.01 49
20260505161004 68 180 0.0 2.0 0.00 0.07 0.01 47
20260505160504 68 195 0.0 2.0 0.00 0.08 0.01 49
20260505153004 64 224 1.0 2.0 0.00 0.12 0.01 62
20260505152504 64 270 0.0 3.0 0.00 0.12 0.01 63
20260505152004 63 278 0.0 3.0 0.00 0.12 0.01 63
20260505151504 63 276 1.0 3.0 0.00 0.13 0.01 63
20260505151004 63 274 0.0 2.0 0.00 0.13 0.01 64
20260505150504 63 275 1.0 3.0 0.00 0.13 0.01 64
20260505140504 62 299 4.0 10.0 0.00 0.13 0.01 62
20260505125004 73 186 0.0 3.0 0.00 0.13 0.01 43
20260505124504 72 204 1.0 3.0 0.00 0.13 0.01 44
20260505124004 71 196 0.0 3.0 0.00 0.13 0.01 44
20260505123504 71 168 1.0 3.0 0.00 0.13 0.01 45
20260505123004 70 11 0.0 2.0 0.00 0.13 0.01 47
20260505122504 69 271 0.0 2.0 0.00 0.13 0.01 49
20260505122004 69 225 0.0 2.0 0.00 0.13 0.01 50
20260505121504 69 93 0.0 3.0 0.00 0.13 0.01 49
20260505121004 69 90 0.0 3.0 0.00 0.13 0.01 50
20260505120504 70 110 0.0 4.0 0.00 0.13 0.01 48
20260505120005 70 143 0.0 4.0 0.00 0.13 0.01 48
20260505115504 70 151 1.0 4.0 0.00 0.13 0.01 51
20260505115004 70 139 0.0 2.0 0.00 0.13 0.01 52
20260505114504 69 106 0.0 3.0 0.00 0.13 0.01 54
20260505114004 69 114 0.0 3.0 0.00 0.13 0.01 55
20260505113504 69 176 1.0 3.0 0.00 0.13 0.01 55
20260505113004 68 160 1.0 2.0 0.00 0.13 0.01 56
20260505112504 68 147 0.0 2.0 0.00 0.13 0.01 59
20260505112004 67 358 0.0 2.0 0.00 0.13 0.01 61
20260505111504 66 308 0.0 2.0 0.00 0.13 0.01 63
20260505111004 65 232 0.0 2.0 0.00 0.13 0.01 66
20260505110504 64 219 0.0 1.0 0.00 0.13 0.01 71
20260505102004 62 277 0.0 2.0 0.00 0.13 0.01 70
20260505101504 62 202 0.0 1.0 0.00 0.13 0.01 71
20260505101004 62 225 0.0 1.0 0.00 0.13 0.01 70
20260505100504 62 319 0.0 2.0 0.00 0.13 0.01 73
20260505100004 62 293 0.0 2.0 0.00 0.13 0.01 73
20260505095504 61 284 0.0 2.0 0.00 0.13 0.01 72
20260505095004 61 270 0.0 2.0 0.00 0.13 0.01 72
20260505094504 61 270 0.0 2.0 0.00 0.13 0.01 72
20260505094004 61 265 0.0 2.0 0.00 0.13 0.01 73
20260505093504 61 143 0.0 2.0 0.00 0.13 0.01 74
20260505093004 61 145 0.0 2.0 0.00 0.13 0.01 74
20260505092504 61 303 0.0 2.0 0.00 0.13 0.01 75
20260505092004 61 276 0.0 2.0 0.00 0.13 0.01 76
20260505091504 61 225 0.0 2.0 0.00 0.13 0.01 77
20260505091004 61 135 0.0 1.0 0.00 0.13 0.01 77
20260505090504 60 198 0.0 2.0 0.00 0.13 0.01 78
20260505090004 60 182 0.0 2.0 0.00 0.13 0.01 78
20260505085504 60 152 0.0 2.0 0.00 0.13 0.01 79
20260505085004 60 180 0.0 1.0 0.00 0.13 0.01 81
20260505084504 60 163 0.0 1.0 0.00 0.13 0.01 82
20260505084004 60 135 0.0 1.0 0.00 0.13 0.01 83
20260505083504 60 135 0.0 1.0 0.00 0.13 0.01 83
20260505083004 60 135 0.0 1.0 0.00 0.13 0.01 84
20260505082504 60 135 0.0 1.0 0.01 0.13 0.01 85
20260505082004 59 135 0.0 1.0 0.01 0.13 0.01 85
20260505081504 59 0 0.0 0.0 0.01 0.13 0.01 86
20260505081004 58 0 0.0 0.0 0.01 0.13 0.01 86
20260505080504 58 0 0.0 0.0 0.01 0.13 0.01 87
20260505080004 58 225 0.0 1.0 0.01 0.13 0.01 87
20260505075504 58 247 0.0 1.0 0.01 0.13 0.01 87
20260505075004 58 278 0.0 1.0 0.01 0.13 0.01 88
20260505074504 58 360 0.0 1.0 0.01 0.13 0.01 88